Weather History for CYPQ - May, 2013

Change the Weather History Date:

Friday, May 3, 2013

  Actual Average Record
Temperature  
Mean Temperature 58 °F -  
Max Temperature 75 °F 64 °F 84 °F (2001)
Min Temperature 42 °F 42 °F -15 °F (2013)
Degree Days  
Heating Degree Days 6    
Growing Degree Days 8 (Base 50)    
Moisture  
Dew Point 43 °F    
Average Humidity 56    
Maximum Humidity 93    
Minimum Humidity 22    
Precipitation  
Precipitation 0.00 in 0.09 in - ()
Sea Level Pressure  
Sea Level Pressure 30.28 in    
Wind  
Wind Speed 3 mph ()    
Max Wind Speed 10 mph    
Max Gust Speed -    
Visibility 9.1 miles    
Events      
Averages and records for this station are not official NWS values.
T = Trace of Precipitation, MM = Missing Value Source: Averaged Metar Reports

Daily Weather History Graph

Daily Weather History Graph

Search for Another Location

Airport or City:

Trip Planner

Search our weather history database for the weather conditions in past years. The results will help you decide how hot, cold, wet, or windy it might be!

Date:

Astronomy

May. 03, 2013 Rise Set
Actual Time 6:01 AM EDT 8:19 PM EDT
Civil Twilight 5:29 AM EDT 8:52 PM EDT
Nautical Twilight 4:49 AM EDT 9:32 PM EDT
Astronomical Twilight 4:05 AM EDT 10:16 PM EDT
Moon 2:39 AM EDT (5/3) 1:59 PM EDT (5/3)
Length of Visible Light 15h 22m
Length of Day
14h 18m
Last Quarter, 37% of the Moon is Illuminated
May 3
Last Quarter
May 9
New
May 18
First Quarter
May 25
Full
May 31
Last Quarter

Hourly Weather History & Observations

Time (EDT) Temp. Windchill Dew Point Humidity Pressure Visibility Wind Dir Wind Speed Gust Speed Precip Events Conditions
12:00 AM 50.0 °F - 46.4 °F 87% 30.28 in 9.0 mi Calm Calm - N/A   Clear
1:00 AM 48.2 °F - 44.6 °F 87% 30.28 in 9.0 mi Calm Calm - N/A   Clear
2:00 AM 46 °F - 44 °F 92% 30.28 in 10 mi West 1.2 mph - -  
2:00 AM 46.4 °F - 44.6 °F 93% 30.28 in 9.0 mi Calm Calm - N/A   Clear
3:00 AM 46.4 °F - 44.6 °F 93% 30.28 in 9.0 mi SSW 2.3 mph - N/A   Clear
4:00 AM 46.4 °F - 42.8 °F 87% 30.29 in 9.0 mi Variable 2.3 mph - N/A   Clear
5:00 AM 46.4 °F 44.3 °F 42.8 °F 87% 30.29 in 9.0 mi ENE 4.6 mph - N/A   Clear
6:00 AM 42.8 °F - 41.0 °F 93% 30.30 in 9.0 mi Calm Calm - N/A   Clear
7:00 AM 46.4 °F - 44.6 °F 93% 30.32 in 9.0 mi West 2.3 mph - N/A   Clear
8:00 AM 56 °F - 44 °F 55% 30.31 in 10 mi ENE 1.2 mph - -  
8:00 AM 57.2 °F - 44.6 °F 63% 30.31 in 9.0 mi Calm Calm - N/A   Clear
9:00 AM 62.6 °F - 46.4 °F 55% 30.32 in 9.0 mi NE 3.5 mph - N/A   Clear
10:00 AM 68.0 °F - 42.8 °F 40% 30.31 in 9.0 mi SE 5.8 mph - N/A   Clear
11:00 AM 71.6 °F - 41.0 °F 33% 30.31 in 9.0 mi East 8.1 mph - N/A   Clear
12:00 PM 73.4 °F - 35.6 °F 25% 30.30 in 9.0 mi ESE 6.9 mph - N/A   Scattered Clouds
1:00 PM 75.2 °F - 37.4 °F 25% 30.29 in 9.0 mi East 3.5 mph - N/A   Overcast
2:00 PM 74 °F - 43 °F 22% 30.28 in 10 mi ESE 10.4 mph - -  
2:00 PM 75.2 °F - 42.8 °F 31% 30.28 in 9.0 mi SE 9.2 mph - N/A   Mostly Cloudy
3:00 PM 75.2 °F - 46.4 °F 36% 30.27 in 9.0 mi ESE 9.2 mph - N/A   Clear
4:00 PM 75.2 °F - 44.6 °F 34% 30.26 in 9.0 mi SSE 9.2 mph - N/A   Clear
5:00 PM 75.2 °F - 44.6 °F 34% 30.25 in 9.0 mi SSE 8.1 mph - N/A   Clear
6:00 PM 73.4 °F - 41.0 °F 31% 30.25 in 9.0 mi SE 10.4 mph - N/A   Clear
7:00 PM 69.8 °F - 39.2 °F 33% 30.25 in 9.0 mi SE 9.2 mph - N/A   Clear
8:00 PM 68 °F - 40 °F 24% 30.25 in 10 mi ESE 6.9 mph - -  
8:00 PM 68.0 °F - 39.2 °F 35% 30.25 in 9.0 mi ESE 5.8 mph - N/A   Clear
9:00 PM 64.4 °F - 41.0 °F 42% 30.26 in 9.0 mi East 2.3 mph - N/A   Clear
10:00 PM 57.2 °F - 48.2 °F 72% 30.26 in 9.0 mi NE 2.3 mph - N/A   Clear
11:00 PM 55.4 °F - 46.4 °F 72% 30.26 in 9.0 mi Calm Calm - N/A   Clear